Regional Weather Roundup
Issued by NWS

Home | Current Version | Previous Version | Graphics & Text | Print | Product List | Glossary On
Versions: 1 2 3 4 5 6 7 8 9 10 11 12 13 14 15 16 17 18 19 20 21 22 23 24 25 26 27 28 29 30 31 32 33 34 35 36 37 38 39 40 41 42 43 44 45 46 47 48 49 50
412
ASUS45 KBOI 241410
RWRID

IDAHO REGIONAL WEATHER ROUNDUP
NATIONAL WEATHER SERVICE BOISE ID
800 AM MDT FRI MAR 24 2017

NOTE: "FAIR" INDICATES FEW OR NO CLOUDS BELOW 12000 FEET
WITH NO SIGNIFICANT WEATHER AND/OR OBSTRUCTIONS TO VISIBILITY

IDZ012-014-241500-
SOUTHWEST IDAHO


CITY           SKY/WX    TMP DP  RH WIND       PRES   REMARKS
BOISE          CLOUDY    47  26  44 SE16      30.01F
CALDWELL       CLOUDY    44  29  55 E12       30.01S
MOUNTAIN HOME  MOCLDY    41  35  79 E21       30.05S
$$

IDZ016-017-241500-
SOUTHCENTRAL IDAHO


CITY           SKY/WX    TMP DP  RH WIND       PRES   REMARKS
BURLEY         CLEAR     36  25  64 S12       30.12R WCI  28
JEROME         PTCLDY    37  26  64 E13       30.11S WCI  29
TWIN FALLS     PTCLDY    38  25  59 S14       30.10R WCI  30
$$

IDZ019>023-241500-
SOUTHEAST IDAHO


CITY           SKY/WX    TMP DP  RH WIND       PRES   REMARKS
IDAHO FALLS    CLEAR     31  26  82 CALM      30.16R
POCATELLO      CLEAR     33  25  72 E6        30.16R WCI  28
REXBURG        CLEAR     28  25  88 N3        30.17R
$$

IDZ006-010-011-018-031-032-241500-
CENTRAL IDAHO MOUNTAINS


CITY           SKY/WX    TMP DP  RH WIND       PRES   REMARKS
MCCALL         CLOUDY    30  23  75 N3        29.97F
HAILEY         PTCLDY    28  19  69 NW12      30.16R WCI  18
STANLEY          N/A     13  10  88 S3        30.09S
SALMON         CLOUDY    25  19  80 CALM      30.07S
CHALLIS        PTCLDY    25  21  85 SW3       30.08R
$$

IDZ002-004-006-007-026-241500-
NORTHERN IDAHO


CITY           SKY/WX    TMP DP  RH WIND       PRES   REMARKS
LEWISTON       CLOUDY    42  33  70 CALM      29.93S
LOWELL           N/A     34  31  88 NW6       30.04F WCI  29
COEUR D`ALENE  LGT RAIN  35  31  85 NE6       29.94F WCI  30
MULLAN PASS    CLOUDY    24  22  91 S8        29.90S WCI  15
$$




USA.gov is the U.S. government's official web portal to all federal, state and local government web resources and services.